Location: DARK SKY Beskydy - Park tmavé oblohy, www.darkskybeskydy.cz
(49.4926°N, 18.5016°E)
Time: 09:30:17
(UTC+01:00)

Vanguard 1 Rocket - All Passes

Search period start: 25 February 2024 00:00
Search period end: 06 March 2024 00:00
Orbit: 654 x 4218 km, 34.3° (Epoch: 24 February)

Date Brightness Start Highest point End Pass type
(mag) Time Alt. Az. Time Alt. Az. Time Alt. Az.
25 Feb - 05:20:02 10° S 05:32:49 19° SSE 05:42:09 10° ESE visible
25 Feb - 07:44:54 10° SW 07:59:52 33° S 08:08:43 10° ESE daylight
25 Feb - 10:14:29 10° WSW 10:25:32 32° SSW 10:32:02 10° SE daylight
25 Feb - 12:45:20 10° WSW 12:49:13 14° SW 12:52:21 10° S daylight
26 Feb - 04:10:54 10° SSE 04:19:43 14° SE 04:27:06 10° ESE visible
26 Feb - 06:31:01 10° SSW 06:47:06 30° SSE 06:57:14 10° ESE daylight
26 Feb - 08:59:42 10° WSW 09:13:40 36° S 09:21:34 10° ESE daylight
26 Feb - 11:30:15 10° WSW 11:38:19 24° SSW 11:43:35 10° SSE daylight
27 Feb - 05:18:09 10° SSW 05:34:01 25° SSE 05:45:00 10° ESE visible
27 Feb - 07:44:54 10° SW 08:01:17 37° S 08:10:42 10° ESE daylight
27 Feb - 10:15:22 10° WSW 10:26:58 32° SSW 10:33:44 10° SE daylight
27 Feb - 12:47:36 10° WSW 12:50:25 12° SW 12:52:49 10° SSW daylight
28 Feb - 04:07:06 10° S 04:20:45 19° SE 04:31:22 10° ESE visible
28 Feb - 06:30:29 10° SW 06:48:24 35° SSE 06:59:22 10° ESE daylight
28 Feb - 09:00:15 10° WSW 09:15:05 38° S 09:23:22 10° ESE daylight
28 Feb - 11:31:33 10° WSW 11:39:35 22° SSW 11:44:56 10° SSE daylight
29 Feb - 03:00:12 10° SSE 03:07:31 12° SE 03:14:06 10° ESE visible
29 Feb - 05:16:56 10° SSW 05:35:09 30° SSE 05:47:22 10° ESE visible
29 Feb - 07:45:05 10° WSW 08:02:37 40° S 08:12:34 10° ESE daylight
29 Feb - 10:16:18 10° WSW 10:28:18 32° SSW 10:35:20 10° SE daylight
01 Mar - 04:04:49 10° S 04:21:42 24° SSE 04:34:22 10° ESE visible
01 Mar - 06:30:14 10° SW 06:49:38 39° SSE 07:01:18 10° ESE daylight
01 Mar - 09:00:53 10° WSW 09:16:25 39° SSW 09:25:04 10° SE daylight
01 Mar - 11:32:58 10° WSW 11:40:44 20° SW 11:46:04 10° S daylight
02 Mar - 02:55:08 10° S 03:08:17 17° SE 03:19:24 10° ESE visible
02 Mar - 05:16:10 10° SSW 05:36:13 35° SSE 05:49:27 10° E visible
02 Mar - 07:45:24 10° WSW 08:03:55 43° S 08:14:20 10° ESE daylight
02 Mar - 10:17:16 10° W 10:29:31 30° SSW 10:36:48 10° SSE daylight
03 Mar - 04:03:21 10° SSW 04:22:34 29° SSE 04:36:46 10° E visible
03 Mar - 06:30:13 10° SW 06:50:49 43° S 07:03:06 10° ESE daylight
03 Mar - 09:01:34 10° WSW 09:17:40 39° SSW 09:26:41 10° SE daylight
03 Mar - 11:34:34 10° WSW 11:41:46 17° SW 11:46:55 10° S daylight
04 Mar - 02:52:21 10° S 03:08:57 22° SE 03:22:43 10° E visible
04 Mar - 05:15:45 10° SW 05:37:14 40° SSE 05:51:20 10° E visible
04 Mar - 07:45:51 10° WSW 08:05:08 45° S 08:16:00 10° ESE daylight
04 Mar - 10:18:18 10° W 10:30:37 28° SSW 10:38:06 10° SSE daylight
05 Mar - 01:44:47 10° SSE 01:55:38 14° SE 02:05:40 10° ESE visible
05 Mar - 04:02:25 10° SSW 04:23:23 34° SSE 04:38:50 10° E visible
05 Mar - 06:30:24 10° WSW 06:51:56 46° S 07:04:49 10° ESE daylight
05 Mar - 09:02:19 10° W 09:18:49 38° SSW 09:28:11 10° SE daylight
05 Mar - 11:36:28 10° WSW 11:42:38 15° SW 11:47:19 10° SSW daylight
